ATLAS CENTAUR R/B - Orbit

View from above orbital plane
View from above orbital plane
View from above satellite
View from above satellite

Ground track
Ground track

The orbit data is extracted from the following two-line orbital elements,

1 28385U 04034B   13135.96683617 0.00085000  00000-0  13844-2 0    04
2 28385  57.3381 195.0975 4345235 129.1336 278.2934  6.90898505    07
Epoch (UTC): 15 May 2013 23:12:14
Eccentricity: 0.4345235
inclination: 57.3381°
perigee height: 206 km
apogee height: 10326 km
right ascension of ascending node: 195.0975°
argument of perigee: 129.1336°
revolutions per day: 6.90898505
mean anomaly at epoch: 278.2934°
orbit number at epoch: 0

The dashed part of the orbit path shows where the satellite is in the earth's shadow,  

Developed and maintained by Chris Peat, Heavens-Above GmbH. Please read the updated FAQ before sending e-mail. Imprint. DLR